Kelowna, British Columbia

11:12 PM PST on December 07, 2016 (GMT -0800)
Kelowna

Weather History for CYLW - October, 2013

Change the Weather History Date:

Wednesday, October 30, 2013

  Actual Average Record
Temperature  
Mean Temperature 35 °F -  
Max Temperature 47 °F 45 °F 60 °F (1997)
Min Temperature 23 °F 27 °F 12 °F (2002)
Degree Days  
Heating Degree Days 30    
Moisture  
Dew Point 30 °F    
Average Humidity 75    
Maximum Humidity 100    
Minimum Humidity 45    
Precipitation  
Precipitation 0.00 in - - ()
Sea Level Pressure  
Sea Level Pressure 30.06 in    
Wind  
Wind Speed 2 mph ()    
Max Wind Speed 7 mph    
Max Gust Speed -    
Visibility 9.1 miles    
Events Rain    
Averages and records for this station are not official NWS values.
T = Trace of Precipitation, MM = Missing Value Source: Averaged Metar Reports

Daily Weather History Graph

Daily Weather History Graph

Search for Another Location

Airport or City:

Trip Planner

Search our weather history database for the weather conditions in past years. The results will help you decide how hot, cold, wet, or windy it might be!

Date:

Astronomy

Oct. 30, 2013 Rise Set
Actual Time 7:44 AM PDT 5:37 PM PDT
Civil Twilight 7:10 AM PDT 6:10 PM PDT
Nautical Twilight 6:32 AM PDT 6:48 PM PDT
Astronomical Twilight 5:55 AM PDT 7:26 PM PDT
Moon 3:15 AM PDT (10/30) 3:44 PM PDT (10/30)
Length of Visible Light 11h 00m
Length of Day
9h 52m
Waning Crescent, 16% of the Moon is Illuminated
Oct 30
Waning Crescent
Nov 3
New
Nov 9
First Quarter
Nov 17
Full
Nov 25
Last Quarter

Hourly Weather History & Observations

Time (PDT) Temp. Windchill Dew Point Humidity Pressure Visibility Wind Dir Wind Speed Gust Speed Precip Events Conditions
12:00 AM 24.8 °F - 23.0 °F 93% 30.04 in 9.0 mi Calm Calm - N/A   Clear
1:00 AM 24.8 °F - 23.0 °F 93% 30.04 in 9.0 mi Variable 2.3 mph - N/A   Clear
2:00 AM 26.6 °F 22.6 °F 24.8 °F 93% 30.07 in 9.0 mi ENE 3.5 mph - N/A   Clear
3:00 AM 24.8 °F - 23.0 °F 93% 30.06 in 9.0 mi Variable 2.3 mph - N/A   Clear
4:00 AM 24.8 °F - 23.0 °F 93% 30.07 in 9.0 mi Calm Calm - N/A   Clear
5:00 AM 26 °F - 25 °F 92% 30.07 in 10 mi ESE 1.2 mph - -  
5:00 AM 26.6 °F - 24.8 °F 93% 30.07 in 9.0 mi Calm Calm - N/A   Partly Cloudy
6:00 AM 28.4 °F 22.2 °F 28.4 °F 100% 30.07 in 9.0 mi East 5.8 mph - N/A   Mostly Cloudy
7:00 AM 32.0 °F 28.7 °F 28.4 °F 87% 30.06 in 9.0 mi ESE 3.5 mph - N/A   Overcast
8:00 AM 32.0 °F 27.5 °F 28.4 °F 87% 30.09 in 9.0 mi ENE 4.6 mph - N/A   Overcast
9:00 AM 33.8 °F 30.8 °F 30.2 °F 87% 30.10 in 9.0 mi NNE 3.5 mph - N/A   Overcast
10:00 AM 37.4 °F - 32.0 °F 81% 30.10 in 9.0 mi Calm Calm - N/A   Overcast
11:00 AM 40 °F - 34 °F 70% 30.09 in 10 mi ESE 1.2 mph - -   Overcast
11:00 AM 39.2 °F - 33.8 °F 81% 30.09 in 9.0 mi Calm Calm - N/A   Overcast
12:00 PM 41.0 °F - 33.8 °F 76% 30.10 in 9.0 mi Variable 2.3 mph - N/A   Mostly Cloudy
1:00 PM 42.8 °F 40.1 °F 32.0 °F 66% 30.08 in 9.0 mi SSE 4.6 mph - N/A   Overcast
2:00 PM 46.4 °F 44.3 °F 32.0 °F 57% 30.06 in 9.0 mi SSW 4.6 mph - N/A   Overcast
3:00 PM 46.4 °F 42.9 °F 32.0 °F 57% 30.06 in 9.0 mi South 6.9 mph - N/A   Mostly Cloudy
4:00 PM 44.6 °F 41.4 °F 30.2 °F 57% 30.05 in 9.0 mi South 5.8 mph - N/A   Scattered Clouds
5:00 PM 45 °F - 31 °F 45% 30.04 in 10 mi SSE 2.3 mph - -  
5:00 PM 44.6 °F - 30.2 °F 57% 30.04 in 9.0 mi SSE 2.3 mph - N/A   Scattered Clouds
6:00 PM 44.6 °F 41.4 °F 30.2 °F 57% 30.04 in 9.0 mi SE 5.8 mph - N/A   Overcast
7:00 PM 42.8 °F 41.1 °F 33.8 °F 70% 30.05 in 9.0 mi South 3.5 mph - N/A   Overcast
8:00 PM 42.8 °F 41.1 °F 33.8 °F 70% 30.03 in 9.0 mi SSW 3.5 mph - N/A   Overcast
9:00 PM 44.6 °F 41.4 °F 30.2 °F 57% 30.02 in 9.0 mi SSE 5.8 mph - N/A   Overcast
10:00 PM 42.8 °F - 32.0 °F 66% 30.02 in 9.0 mi Variable 2.3 mph - N/A   Overcast
11:00 PM 43 °F - 33 °F 56% 30.01 in 10 mi SW 4.6 mph - -   Overcast
11:00 PM 42.8 °F 40.1 °F 32.0 °F 66% 30.01 in 9.0 mi SW 4.6 mph - N/A   Overcast
11:20 PM 42.8 °F 40.1 °F 32.0 °F 66% 30.01 in 9.0 mi South 4.6 mph - N/A Rain Light Rain
11:32 PM 42.8 °F - 33.8 °F 70% 30.01 in 9.0 mi Variable 2.3 mph - N/A   Overcast